Date,TemperatureHighF,TemperatureAvgF,TemperatureLowF,DewpointHighF,DewpointAvgF,DewpointLowF,HumidityHigh,HumidityAvg,HumidityLow,PressureMaxIn,PressureMinIn,WindSpeedMaxMPH,WindSpeedAvgMPH,GustSpeedMaxMPH,PrecipitationSumIn
2013-1-1,58,44,33,39,30,19,94,62,31,30.26,30.12,5,1,8,0.00
2013-1-2,67,45,30,34,25,16,82,51,19,30.17,30.03,8,1,12,0.00
2013-1-3,64,45,30,38,22,10,78,47,16,30.22,30.07,10,1,14,0.00
2013-1-4,66,45,28,30,20,10,73,44,12,30.30,30.19,3,0,6,0.00
2013-1-5,68,46,29,32,24,15,72,47,13,30.31,30.18,4,0,7,0.00
2013-1-6,56,46,36,44,38,28,92,74,51,30.22,30.01,9,1,15,0.02
2013-1-7,64,48,36,44,33,21,97,63,24,30.09,29.97,9,1,13,0.00
2013-1-8,74,51,34,38,31,25,77,51,20,30.15,30.05,4,0,5,0.00
2013-1-9,72,53,39,46,38,32,94,60,26,30.15,29.98,8,1,12,0.00
2013-1-10,51,46,37,47,38,23,95,75,35,30.06,29.87,12,4,17,0.02
2013-1-11,53,40,26,30,25,18,86,59,30,30.20,30.05,6,1,9,0.00
2013-1-12,54,38,26,32,23,13,87,59,23,30.18,30.07,5,0,8,0.00
2013-1-13,55,39,24,24,19,11,75,47,24,30.18,30.05,7,0,10,0.00
2013-1-14,50,36,22,24,11,3,75,41,15,30.37,30.15,9,1,15,0.00
2013-1-15,60,41,24,25,18,10,67,43,22,30.48,30.33,6,1,10,0.00
2013-1-16,67,49,30,34,25,20,74,44,21,30.39,30.15,11,1,20,0.00
2013-1-17,76,52,34,36,25,17,71,40,12,30.21,30.08,4,0,8,0.00
2013-1-18,78,53,34,36,25,18,65,38,13,30.18,30.07,5,1,10,0.00
2013-1-19,78,54,33,35,22,13,68,35,11,30.21,30.09,5,1,8,0.00
2013-1-20,77,52,32,31,20,9,61,33,9,30.18,30.02,4,0,9,0.00
2013-1-21,81,53,32,34,18,5,62,30,6,30.13,30.03,6,1,9,0.00
2013-1-22,81,55,32,34,22,9,60,32,7,30.14,30.02,6,0,10,0.00
2013-1-23,74,59,45,47,34,25,60,40,24,30.11,30.03,8,1,12,0.00
2013-1-24,67,56,49,57,48,31,96,77,34,30.20,30.08,4,0,6,0.14
2013-1-25,60,57,54,58,54,51,96,92,81,30.14,29.93,8,1,12,0.30
2013-1-26,62,56,53,58,54,53,98,94,82,29.98,29.88,9,2,13,0.14
2013-1-27,55,50,44,53,47,40,96,89,68,30.02,29.95,13,5,18,0.00
2013-1-28,56,45,35,45,35,29,96,71,41,30.18,30.00,6,1,10,0.00
2013-1-29,60,44,32,44,37,30,92,77,46,30.25,30.14,8,1,13,0.00
2013-1-30,72,52,35,48,38,33,96,66,26,30.33,30.21,5,1,8,0.00
2013-1-31,72,55,37,46,38,34,90,57,27,30.26,30.10,6,1,12,0.00
2013-2-1,78,58,40,44,38,31,80,52,19,30.18,30.08,4,0,6,0.00
2013-2-2,77,60,46,47,41,34,76,52,28,30.19,30.09,5,0,7,0.00
2013-2-3,73,60,47,52,45,39,83,61,34,30.12,29.97,9,1,13,0.00
2013-2-4,78,58,41,50,43,38,90,64,29,30.08,29.94,6,1,12,0.00
2013-2-5,68,52,40,51,45,37,92,78,47,30.06,29.94,8,2,12,0.00
2013-2-6,64,52,43,48,45,40,95,79,50,30.10,29.98,5,1,8,0.00
2013-2-7,67,50,35,49,42,34,97,77,41,30.13,29.97,12,3,18,0.00
2013-2-8,47,42,37,43,38,36,95,88,74,29.99,29.89,9,3,16,0.38
2013-2-9,52,43,33,41,37,32,97,81,54,30.12,29.93,9,1,12,0.01
2013-2-10,55,43,32,42,37,30,96,80,53,30.12,30.00,9,1,13,0.00
2013-2-11,59,46,34,43,29,13,97,60,20,30.25,30.05,8,1,13,0.00
2013-2-12,65,46,30,38,27,18,87,52,19,30.35,30.23,4,0,6,0.00
2013-2-13,74,51,32,40,32,23,81,54,17,30.27,30.12,6,0,12,0.00
2013-2-14,74,55,35,43,33,23,86,49,17,30.19,30.04,10,1,16,0.00
2013-2-15,76,56,39,43,29,19,72,39,14,30.21,30.13,7,1,12,0.00
2013-2-16,81,56,37,41,27,14,70,37,10,30.20,29.98,8,1,9,0.00
2013-2-17,71,52,37,46,34,22,94,54,26,30.02,29.89,11,2,16,0.00
2013-2-18,68,50,42,48,43,39,97,79,39,30.06,29.92,9,2,14,0.00
2013-2-19,48,45,40,45,41,38,94,87,74,29.97,29.70,8,4,14,0.29
2013-2-20,57,44,33,39,36,31,96,75,42,30.02,29.67,12,2,18,0.05
2013-2-21,58,45,34,43,35,31,91,72,41,30.11,29.97,6,0,8,0.00
2013-2-22,66,48,32,41,33,20,91,61,20,30.21,30.11,6,1,9,0.00
2013-2-23,67,49,34,45,35,30,89,62,30,30.18,29.90,11,2,16,0.00
2013-2-24,68,49,33,40,25,8,90,49,12,30.21,29.97,6,1,9,0.00
2013-2-25,71,50,30,29,23,17,67,38,15,30.24,30.06,5,1,9,0.00
2013-2-26,75,51,31,40,25,14,85,43,15,30.14,29.97,6,1,10,0.00
2013-2-27,70,52,34,33,22,11,67,36,13,30.29,30.14,8,1,14,0.00
2013-2-28,75,55,34,38,24,16,74,35,13,30.33,30.23,10,1,14,0.00
2013-3-1,85,61,38,39,28,23,64,34,11,30.33,30.15,7,1,9,0.00
2013-3-2,86,63,40,41,30,20,66,34,9,30.24,30.05,6,1,12,0.00
2013-3-3,74,59,44,45,35,28,89,44,21,30.09,29.94,11,3,15,0.00
2013-3-4,71,56,45,51,46,42,93,72,40,30.09,29.99,9,2,12,0.00
2013-3-5,71,54,42,53,46,40,97,78,47,30.10,29.98,10,4,16,0.00
2013-3-6,68,54,46,47,44,40,93,70,41,30.11,29.98,7,2,12,0.00
2013-3-7,53,48,42,50,45,40,96,90,80,30.00,29.87,8,1,10,0.19
2013-3-8,54,45,41,46,40,36,96,83,57,30.04,29.77,12,3,17,0.71
2013-3-9,61,49,41,48,43,39,95,80,57,30.21,30.03,9,3,15,0.00
2013-3-10,75,55,36,47,37,26,97,59,17,30.27,30.13,7,1,12,0.00
2013-3-11,81,59,38,45,37,28,81,51,16,30.19,30.01,8,1,12,0.00
2013-3-12,87,63,42,50,41,33,84,50,15,30.08,29.97,6,1,8,0.00
2013-3-13,91,68,46,56,43,32,77,47,13,30.09,29.98,8,1,10,0.00
2013-3-14,94,70,49,52,43,34,79,43,13,30.07,29.94,5,1,9,0.00
2013-3-15,88,66,50,50,44,37,76,47,20,30.00,29.87,12,2,17,0.00
2013-3-16,80,61,45,50,42,31,86,55,23,29.92,29.82,9,2,13,0.00
2013-3-17,79,58,46,56,48,43,97,75,29,29.96,29.88,9,2,13,0.00
2013-3-18,72,57,49,55,50,47,96,78,46,30.06,29.95,7,2,12,0.00
2013-3-19,77,59,47,55,50,44,96,74,43,30.07,29.99,6,1,9,0.00
2013-3-20,77,61,48,54,49,46,92,67,36,30.07,29.94,6,1,9,0.00
2013-3-21,76,60,48,52,48,45,95,68,38,29.94,29.76,13,3,17,0.00
2013-3-22,80,59,49,53,48,42,93,72,28,29.90,29.76,11,2,17,0.00
2013-3-23,80,60,43,55,45,33,96,66,18,29.98,29.88,11,2,16,0.00
2013-3-24,83,62,42,49,43,34,96,56,18,29.98,29.83,10,1,15,0.00
2013-3-25,86,64,46,51,42,30,80,50,15,29.94,29.83,11,2,20,0.00
2013-3-26,78,60,44,49,39,21,83,51,16,29.93,29.84,12,2,18,0.00
2013-3-27,76,58,45,52,46,43,95,69,37,30.02,29.89,12,2,17,0.00
2013-3-28,82,62,44,52,46,41,92,61,24,30.04,29.96,6,1,15,0.00
2013-3-29,85,64,47,53,48,37,92,62,21,30.08,29.97,12,2,17,0.00
2013-3-30,84,64,54,59,51,44,87,66,29,30.08,29.97,11,3,17,0.00
2013-3-31,73,59,46,52,48,42,90,71,45,30.08,29.98,15,3,22,0.00
2013-4-1,71,58,48,50,47,44,91,69,41,30.14,30.02,6,2,10,0.00
2013-4-2,80,61,51,54,49,42,89,68,28,30.06,29.92,9,2,18,0.00
2013-4-3,88,66,47,54,48,38,92,58,19,30.05,29.93,12,2,20,0.00
2013-4-4,83,66,49,58,48,38,94,58,22,30.04,29.95,12,1,18,0.00
2013-4-5,75,59,50,57,51,46,95,77,42,30.05,29.94,9,2,14,0.00
2013-4-6,78,61,53,55,52,49,92,74,39,30.04,29.91,10,3,17,0.00
2013-4-7,77,60,50,56,51,47,94,75,38,29.96,29.77,10,3,15,0.00
2013-4-8,59,53,48,52,46,39,93,77,55,29.81,29.64,20,7,31,0.00
2013-4-9,74,56,40,46,35,12,95,54,12,30.00,29.82,14,2,20,0.00
2013-4-10,83,62,41,39,31,15,71,38,8,30.08,29.93,14,2,21,0.00
2013-4-11,82,61,43,50,40,29,90,50,21,30.00,29.73,12,3,20,0.00
2013-4-12,88,64,51,57,51,42,93,67,22,29.84,29.70,11,2,18,0.00
2013-4-13,77,59,48,57,51,47,97,79,44,29.86,29.77,10,4,17,0.00
2013-4-14,61,53,49,50,48,46,93,83,65,29.86,29.78,8,3,14,0.00
2013-4-15,63,54,49,50,47,45,90,78,56,29.87,29.80,12,5,20,0.00
2013-4-16,62,51,42,45,41,35,91,68,44,29.97,29.85,10,4,17,0.00
2013-4-17,72,55,37,42,29,11,93,45,10,30.13,29.97,10,2,15,0.13
2013-4-18,78,59,36,38,24,12,68,31,11,30.20,30.08,6,1,12,0.00
2013-4-19,86,65,40,34,24,16,59,25,8,30.15,29.93,7,1,12,0.00
2013-4-20,93,69,45,48,31,21,54,27,10,29.98,29.81,12,2,19,0.00
2013-4-21,90,70,50,50,37,30,62,34,15,29.95,29.86,13,2,18,0.00
2013-4-22,85,64,47,48,42,36,86,50,20,29.96,29.82,12,3,18,0.00
2013-4-23,88,64,50,55,49,40,93,65,20,29.91,29.78,10,3,14,0.00
2013-4-24,69,58,51,55,50,44,92,75,57,29.95,29.84,15,4,21,0.00
2013-4-25,75,60,53,54,48,45,83,66,38,30.08,29.93,7,2,12,0.00
2013-4-26,88,66,46,56,48,42,91,58,22,30.12,30.02,10,2,16,0.00
2013-4-27,94,72,50,57,48,28,87,50,12,30.11,29.92,12,1,18,0.00
2013-4-28,95,73,51,56,50,41,90,51,18,29.96,29.78,8,1,16,0.00
2013-4-29,89,69,51,58,49,39,89,55,23,29.83,29.70,12,3,20,0.00
2013-4-30,78,61,52,56,52,50,94,76,42,29.86,29.74,13,4,18,0.00
2013-5-1,93,69,56,58,50,24,87,60,9,30.03,29.86,8,2,14,0.00
2013-5-2,89,72,48,52,27,-1,93,34,4,30.09,29.97,13,2,24,0.00
2013-5-3,96,73,48,41,25,11,41,19,6,30.02,29.73,15,1,22,0.00
2013-5-4,84,64,49,52,40,23,82,46,14,29.82,29.67,17,4,22,0.00
2013-5-5,68,59,54,52,49,47,85,71,53,29.93,29.80,14,4,18,0.00
2013-5-6,62,56,53,59,52,48,96,87,69,30.01,29.90,11,3,18,0.33
2013-5-7,69,57,52,56,51,47,94,80,53,30.06,29.96,12,2,16,0.04
2013-5-8,72,61,53,54,50,47,91,71,45,30.07,30.00,8,2,12,0.00
2013-5-9,78,61,49,57,52,47,94,74,42,30.07,29.95,13,2,20,0.11
2013-5-10,89,69,54,64,56,49,96,69,26,30.05,29.93,11,2,18,0.00
2013-5-11,97,77,55,61,50,34,92,48,12,30.04,29.90,11,1,16,0.00
2013-5-12,101,82,60,56,44,33,59,31,10,30.01,29.84,12,1,17,0.00
2013-5-13,102,84,64,56,44,36,55,28,12,29.92,29.80,7,1,15,0.00
2013-5-14,91,74,59,53,44,29,81,39,11,29.93,29.82,12,4,20,0.00
2013-5-15,85,66,54,59,52,46,94,65,30,29.97,29.88,11,4,17,0.00
2013-5-16,82,63,54,59,53,51,93,73,38,29.93,29.82,13,4,20,0.00
2013-5-17,77,63,56,58,53,52,87,74,45,29.97,29.87,11,4,17,0.00
2013-5-18,82,66,56,58,54,51,88,68,38,29.99,29.90,14,4,18,0.00
2013-5-19,88,68,53,60,54,48,95,65,25,29.95,29.80,12,2,16,0.00
2013-5-20,97,74,53,59,52,37,90,54,13,29.90,29.80,16,2,23,0.00
2013-5-21,91,72,55,60,53,44,90,56,22,29.87,29.75,14,3,20,0.00
2013-5-22,82,65,56,57,52,41,93,67,25,29.81,29.70,13,4,22,0.00
2013-5-23,78,62,54,53,49,45,86,66,34,29.91,29.78,13,4,21,0.00
2013-5-24,80,64,53,55,47,36,87,59,27,29.94,29.87,13,4,20,0.00
2013-5-25,82,63,49,56,48,31,95,65,18,29.97,29.91,12,3,17,0.00
2013-5-26,79,62,51,54,50,46,94,67,38,30.01,29.93,11,3,18,0.00
2013-5-27,85,66,50,57,52,47,92,65,31,29.97,29.80,16,3,21,0.00
2013-5-28,81,64,54,59,55,52,93,76,44,29.84,29.71,9,3,16,0.00
2013-5-29,92,70,52,60,55,50,95,63,27,29.77,29.66,12,3,15,0.00
2013-5-30,90,71,54,62,54,49,93,59,29,29.83,29.71,13,3,17,0.00
2013-5-31,94,73,55,64,56,52,96,61,27,29.85,29.73,12,3,18,0.00
2013-6-1,103,77,58,65,56,34,86,55,13,29.81,29.64,14,3,21,0.00
2013-6-2,88,72,58,63,56,50,91,63,29,29.76,29.67,10,4,15,0.00
2013-6-3,85,66,56,62,56,53,95,72,35,29.85,29.74,13,3,17,0.00
2013-6-4,87,68,56,63,55,47,90,68,26,29.92,29.82,10,3,18,0.00
2013-6-5,90,69,53,62,56,49,95,67,25,29.94,29.82,10,2,15,0.00
2013-6-6,92,72,54,62,55,45,91,60,26,29.88,29.77,12,3,18,0.00
2013-6-7,93,71,53,63,56,51,96,64,27,29.84,29.69,12,3,18,0.00
2013-6-8,91,71,54,65,57,52,94,66,36,29.84,29.73,10,3,18,0.00
2013-6-9,90,71,53,64,52,32,96,59,13,29.85,29.79,8,3,13,0.00
2013-6-10,87,68,54,59,50,38,95,60,18,29.89,29.82,12,3,18,0.00
2013-6-11,100,74,53,56,50,39,80,48,15,29.90,29.80,12,2,18,0.00
2013-6-12,85,71,58,61,56,54,88,63,38,29.93,29.85,13,4,20,0.00
2013-6-13,84,63,55,63,56,53,95,81,42,29.94,29.90,7,1,12,0.00
2013-6-14,89,69,53,62,52,34,92,60,15,29.86,29.75,12,4,19,0.00
2013-6-15,88,67,52,60,50,35,97,62,15,29.92,29.83,12,3,16,0.00
2013-6-16,92,71,50,60,52,44,92,56,21,29.96,29.86,10,2,15,0.00
2013-6-17,95,75,55,59,52,39,85,49,17,29.91,29.81,14,3,20,0.00
2013-6-18,91,73,56,58,52,48,79,50,27,29.83,29.75,14,3,18,0.00
2013-6-19,90,71,54,60,54,49,97,60,27,29.81,29.72,13,3,18,0.00
2013-6-20,91,73,54,58,51,44,88,51,24,29.81,29.73,13,3,23,0.00
2013-6-21,91,72,54,56,50,45,76,48,23,29.85,29.77,13,3,20,0.00
2013-6-22,90,73,54,58,52,48,83,51,30,29.84,29.74,12,3,18,0.00
2013-6-23,86,68,54,60,54,49,95,65,32,29.81,29.72,14,4,21,0.00
2013-6-24,83,66,56,61,55,53,91,72,40,29.90,29.78,10,3,14,0.00
2013-6-25,91,74,57,64,58,54,90,62,35,29.94,29.83,7,2,10,0.00
2013-6-26,99,82,63,67,60,56,82,51,28,29.91,29.82,10,2,16,0.00
2013-6-27,102,84,66,68,59,54,75,45,20,29.95,29.87,12,2,20,0.00
2013-6-28,107,87,66,65,58,53,70,40,21,29.93,29.77,10,2,16,0.00
2013-6-29,108,88,68,64,56,38,72,39,11,29.82,29.66,9,1,14,0.00
2013-6-30,103,86,71,65,56,50,61,38,18,29.75,29.65,13,3,20,0.00
2013-7-1,104,86,72,66,55,46,61,39,17,29.82,29.73,14,3,20,0.00
2013-7-2,100,81,68,65,58,50,65,46,20,29.89,29.80,14,2,20,0.00
2013-7-3,101,81,68,65,57,48,76,47,22,29.85,29.71,14,2,20,0.00
2013-7-4,101,81,65,61,52,38,71,41,18,29.75,29.65,13,3,20,0.00
2013-7-5,94,77,63,64,56,51,80,53,24,29.77,29.68,13,3,20,0.00
2013-7-6,97,77,62,66,61,57,87,61,32,29.75,29.65,11,3,17,0.00
2013-7-7,100,81,61,67,58,47,89,52,19,29.78,29.68,6,2,10,0.00
2013-7-8,107,86,63,63,54,40,83,41,11,29.86,29.76,6,1,10,0.00
2013-7-9,102,85,69,64,54,47,53,36,18,29.89,29.83,12,3,18,0.00
2013-7-10,88,78,73,64,57,52,61,49,36,29.89,29.83,10,4,17,0.00
2013-7-11,88,74,68,65,61,53,81,65,38,29.92,29.81,7,2,10,0.00
2013-7-12,94,78,66,69,63,58,86,62,34,29.87,29.76,13,3,20,0.00
2013-7-13,98,80,62,67,60,41,90,55,16,29.88,29.76,10,3,16,0.00
2013-7-14,100,81,69,64,56,41,74,46,24,29.85,29.74,12,3,17,0.00
2013-7-15,98,82,64,59,50,41,61,35,17,29.80,29.71,9,2,14,0.00
2013-7-16,97,78,61,60,47,29,72,37,11,29.92,29.78,13,3,18,0.00
2013-7-17,101,79,57,53,44,24,71,34,8,29.96,29.86,11,2,20,0.00
2013-7-18,99,80,60,54,44,33,59,31,11,29.93,29.77,6,1,9,0.00
2013-7-19,96,77,62,59,55,42,77,49,18,29.83,29.72,11,3,17,0.00
2013-7-20,91,74,63,70,61,57,85,67,44,29.81,29.71,8,3,13,0.00
2013-7-21,89,74,67,68,62,58,81,69,47,29.87,29.72,11,2,18,0.00
2013-7-22,92,77,66,70,63,60,87,64,43,29.91,29.84,15,3,21,0.00
2013-7-23,96,79,65,67,62,57,81,58,35,29.94,29.83,13,2,17,0.00
2013-7-24,99,81,66,69,61,55,77,54,31,29.90,29.78,7,2,12,0.00
2013-7-25,99,81,64,65,60,55,81,51,26,29.93,29.82,10,3,17,0.00
2013-7-26,98,78,67,71,62,59,91,61,31,30.00,29.89,8,2,13,0.06
2013-7-27,95,79,68,68,61,56,82,56,32,29.93,29.78,12,4,17,0.00
2013-7-28,91,74,59,67,54,40,92,56,17,29.85,29.77,12,3,18,0.00
2013-7-29,93,74,55,62,54,51,90,56,26,29.97,29.84,12,3,18,0.00
2013-7-30,94,74,60,64,56,52,82,55,25,30.03,29.93,11,3,16,0.00
2013-7-31,88,71,59,62,57,54,86,64,33,30.02,29.90,11,4,17,0.00
2013-8-1,90,69,54,62,53,39,97,63,18,29.97,29.84,11,3,18,0.00
2013-8-2,92,72,53,61,54,48,95,60,24,29.91,29.82,13,3,17,0.00
2013-8-3,92,73,54,62,55,45,94,58,24,29.93,29.84,11,3,17,0.00
2013-8-4,95,76,57,64,55,46,88,53,22,29.93,29.84,12,2,16,0.00
2013-8-5,98,76,57,58,51,38,78,45,14,29.92,29.83,11,3,18,0.00
2013-8-6,94,74,55,61,51,41,89,50,20,29.96,29.88,11,3,17,0.00
2013-8-7,93,74,55,58,51,29,86,50,15,29.99,29.89,10,2,15,0.00
2013-8-8,93,74,55,56,48,35,74,44,15,29.94,29.82,14,3,20,0.00
2013-8-9,89,70,52,60,50,39,89,54,18,29.92,29.83,13,3,20,0.00
2013-8-10,90,70,51,59,52,45,90,57,25,29.96,29.88,11,2,17,0.00
2013-8-11,94,74,54,60,53,42,86,52,18,29.94,29.81,10,2,15,0.00
2013-8-12,97,76,56,61,54,47,89,52,20,29.89,29.80,12,2,16,0.00
2013-8-13,101,79,58,64,56,47,87,52,18,29.89,29.77,11,2,15,0.00
2013-8-14,104,80,59,66,56,40,87,49,12,29.84,29.72,10,2,15,0.00
2013-8-15,102,81,63,64,52,31,80,43,9,29.87,29.79,15,3,20,0.00
2013-8-16,101,82,65,60,54,49,64,40,22,29.89,29.80,12,2,20,0.00
2013-8-17,104,84,65,63,55,46,67,40,19,29.88,29.72,11,2,16,0.00
2013-8-18,100,82,68,62,55,46,61,40,24,29.82,29.71,13,3,22,0.00
2013-8-19,99,81,68,65,58,49,72,48,26,29.83,29.75,11,2,16,0.00
2013-8-20,99,82,65,69,55,47,74,43,18,29.83,29.74,9,2,15,0.00
2013-8-21,104,84,62,62,53,40,74,39,13,29.84,29.72,4,0,8,0.00
2013-8-22,104,85,66,62,49,40,68,32,15,29.85,29.71,0,0,0,0.00
2013-8-23,103,82,65,60,48,40,63,32,15,29.80,29.64,0,0,0,0.00
2013-8-24,100,80,61,59,45,25,73,33,10,29.81,29.68,0,0,1,0.00
2013-8-25,96,81,66,68,54,43,65,40,27,29.86,29.76,14,1,20,0.00
2013-8-26,88,80,72,68,63,59,71,57,43,29.86,29.75,5,1,9,0.00
2013-8-27,98,83,69,71,62,57,79,52,32,29.78,29.68,13,2,21,0.00
2013-8-28,101,85,68,67,60,56,75,45,29,29.83,29.71,13,2,20,0.00
2013-8-29,98,84,70,71,63,57,75,51,34,29.89,29.81,11,1,16,0.00
2013-8-30,97,84,76,75,69,66,81,64,38,29.91,29.82,12,2,20,0.00
2013-8-31,95,82,74,76,69,67,85,66,45,29.90,29.79,10,2,17,0.00
2013-9-1,98,83,72,74,68,64,88,63,36,29.87,29.74,12,2,15,0.00
2013-9-2,102,83,68,72,65,57,88,58,27,29.85,29.72,14,1,23,0.00
2013-9-3,102,87,73,69,63,56,77,48,28,29.82,29.72,10,2,15,0.00
2013-9-4,102,86,71,69,61,56,73,46,26,29.84,29.75,10,2,22,0.00
2013-9-5,105,87,72,70,61,56,67,44,24,29.82,29.73,12,1,20,0.00
2013-9-6,104,87,73,67,59,52,69,42,22,29.86,29.70,12,1,17,0.01
2013-9-7,100,82,72,71,64,53,86,56,26,29.88,29.79,12,1,17,0.45
2013-9-8,99,82,67,71,58,40,91,50,20,29.87,29.74,8,1,12,0.00
2013-9-9,94,79,70,60,55,48,60,43,27,29.82,29.71,11,2,17,0.00
2013-9-10,92,74,62,65,54,46,86,54,27,29.95,29.80,13,2,20,0.00
2013-9-11,92,73,57,64,55,43,93,58,22,30.00,29.91,11,2,18,0.00
2013-9-12,98,77,58,59,50,32,88,46,11,29.96,29.82,6,1,12,0.00
2013-9-13,101,79,60,57,50,32,78,41,11,29.87,29.66,11,2,16,0.00
2013-9-14,103,82,62,62,54,45,78,43,16,29.72,29.60,7,1,12,0.00
2013-9-15,104,82,63,63,52,37,75,40,15,29.78,29.67,11,1,18,0.00
2013-9-16,103,81,62,62,53,44,64,41,14,29.82,29.70,12,2,18,0.00
2013-9-17,94,74,59,58,53,47,78,51,22,29.80,29.70,12,3,18,0.00
2013-9-18,89,68,54,64,54,43,97,65,21,29.82,29.73,10,2,13,0.00
2013-9-19,93,71,54,62,56,50,89,64,27,29.83,29.73,10,2,16,0.00
2013-9-20,84,67,58,64,59,56,96,78,45,29.90,29.82,10,3,14,0.00
2013-9-21,85,68,59,62,58,55,91,72,38,29.91,29.78,13,3,18,0.00
2013-9-22,82,66,56,58,53,46,92,67,29,29.88,29.78,7,2,13,0.00
2013-9-23,95,73,52,57,48,38,90,50,15,29.92,29.83,10,1,16,0.00
2013-9-24,94,73,55,55,47,40,71,43,15,29.94,29.83,11,2,16,0.00
2013-9-25,81,65,52,55,50,41,84,61,29,29.88,29.71,11,4,21,0.00
2013-9-26,76,62,53,54,49,40,84,64,29,29.93,29.75,11,3,16,0.00
2013-9-27,84,64,45,55,38,26,89,47,13,30.05,29.92,5,1,8,0.00
2013-9-28,91,69,47,43,33,17,63,30,7,30.08,29.97,8,1,13,0.00
2013-9-29,92,71,50,46,36,26,63,32,11,30.09,29.97,10,1,18,0.00
2013-9-30,93,70,50,48,40,33,65,38,14,30.03,29.86,11,2,16,0.00
2013-10-1,89,69,51,56,46,40,85,49,19,29.95,29.87,10,2,20,0.00
2013-10-2,83,64,54,60,54,50,96,74,32,29.98,29.87,11,2,16,0.00
2013-10-3,80,64,56,58,55,51,90,74,40,29.96,29.82,12,3,18,0.00
2013-10-4,85,68,55,59,39,15,94,48,9,30.09,29.91,9,1,14,0.00
2013-10-5,90,68,47,36,24,12,48,21,7,30.17,30.06,8,1,13,0.00
2013-10-6,94,69,47,45,26,16,63,24,7,30.15,29.99,4,1,9,0.00
2013-10-7,89,69,52,44,34,23,53,30,10,30.02,29.90,11,2,20,0.00
2013-10-8,77,61,46,53,44,30,80,56,30,29.96,29.83,14,4,20,0.00
2013-10-9,58,53,48,52,49,46,95,85,65,29.86,29.75,13,4,18,0.42
2013-10-10,68,54,43,52,47,41,97,79,50,30.07,29.85,6,1,9,0.01
2013-10-11,79,60,44,55,47,40,96,66,27,30.09,29.95,6,1,9,0.00
2013-10-12,81,63,48,56,49,41,92,66,27,30.01,29.89,12,2,16,0.00
2013-10-13,75,60,51,56,52,48,95,77,42,30.05,29.94,12,2,17,0.00
2013-10-14,84,63,45,55,42,32,97,55,18,30.08,29.95,8,1,10,0.00
2013-10-15,85,65,47,49,37,29,83,40,14,30.03,29.91,6,0,9,0.00
2013-10-16,86,65,46,45,34,24,81,37,13,30.12,30.01,5,0,10,0.00
2013-10-17,85,65,46,50,35,28,81,37,13,30.08,29.93,9,1,10,0.00
2013-10-18,89,67,47,49,37,25,81,40,11,30.05,29.95,6,1,9,0.00
2013-10-19,92,68,48,46,34,21,68,34,9,30.06,29.96,7,1,9,0.00
2013-10-20,89,66,47,50,42,33,74,46,16,30.01,29.90,10,1,14,0.00
2013-10-21,89,66,47,48,43,30,78,49,13,30.01,29.91,9,1,13,0.00
2013-10-22,91,66,47,55,44,25,86,53,11,30.02,29.90,10,2,16,0.00
2013-10-23,77,59,48,58,52,45,97,80,49,30.01,29.91,7,2,10,0.00
2013-10-24,74,61,52,56,53,48,92,77,47,30.08,29.98,5,1,7,0.00
2013-10-25,85,62,46,58,49,44,97,68,26,30.16,30.05,8,0,12,0.00
2013-10-26,92,69,48,50,43,33,80,45,13,30.13,29.98,8,1,13,0.00
2013-10-27,84,65,50,53,45,35,87,52,22,30.01,29.81,11,4,17,0.00
2013-10-28,63,55,47,52,49,45,92,79,60,29.98,29.84,12,5,21,0.00
2013-10-29,65,53,44,51,44,40,96,74,45,30.06,29.97,4,1,7,0.00
2013-10-30,74,58,46,51,45,37,94,65,31,30.10,30.01,4,0,6,0.00
2013-10-31,78,59,42,48,35,27,87,48,17,30.15,30.03,6,1,8,0.00
2013-11-1,87,63,43,47,34,28,81,38,13,30.16,29.99,6,1,9,0.00
2013-11-2,82,62,45,52,39,29,88,47,18,30.07,29.89,12,2,17,0.00
2013-11-3,73,56,43,53,49,41,97,79,45,29.96,29.84,9,2,12,0.00
2013-11-4,62,56,51,52,48,45,90,76,59,29.99,29.83,6,1,9,0.00
2013-11-5,73,55,42,50,34,15,96,53,16,30.22,29.98,6,1,9,0.00
2013-11-6,83,58,37,36,22,8,69,30,6,30.28,30.18,5,1,8,0.00
2013-11-7,87,62,42,45,26,16,57,28,9,30.19,30.05,3,0,10,0.00
2013-11-8,84,62,44,41,29,20,68,33,10,30.08,29.97,8,1,12,0.00
2013-11-9,81,59,41,40,28,14,76,35,9,30.14,30.04,7,1,10,0.00
2013-11-10,82,59,45,36,26,16,61,32,11,30.18,30.08,5,0,8,0.00
2013-11-11,86,62,41,44,35,24,64,40,15,30.17,30.05,6,1,9,0.00
2013-11-12,79,62,45,50,39,34,72,46,22,30.22,30.12,3,0,5,0.00
2013-11-13,88,66,47,46,38,32,66,39,16,30.13,29.94,4,1,7,0.00
2013-11-14,89,66,47,45,37,29,72,38,13,30.01,29.81,11,1,16,0.00
2013-11-15,64,56,52,54,48,36,90,76,49,29.81,29.70,10,3,14,0.00
2013-11-16,59,55,52,51,48,44,93,79,60,29.99,29.80,11,4,15,0.01
2013-11-17,70,57,45,53,47,42,92,72,43,30.13,29.99,6,1,9,0.00
2013-11-18,71,55,41,53,47,39,95,75,42,30.20,30.07,6,1,9,0.00
2013-11-19,64,57,53,53,50,47,89,78,58,30.13,29.98,5,1,8,0.00
2013-11-20,61,56,52,52,51,49,92,83,68,30.01,29.93,7,2,12,0.01
2013-11-21,58,54,49,55,52,48,96,94,89,29.94,29.89,10,3,15,0.21
2013-11-22,49,46,40,48,44,39,97,94,89,30.03,29.88,3,0,6,0.18
2013-11-23,64,48,38,48,41,36,98,79,47,30.16,30.02,3,1,7,0.01
2013-11-24,66,50,38,47,40,36,95,72,42,30.25,30.15,4,0,7,0.00
2013-11-25,73,53,37,48,40,35,93,65,28,30.31,30.20,4,0,7,0.00
2013-11-26,77,56,39,46,38,35,89,57,26,30.27,30.11,5,1,8,0.00
2013-11-27,75,57,46,45,38,33,72,49,26,30.13,29.92,7,1,9,0.00
2013-11-28,70,54,42,46,39,33,85,61,30,30.12,29.95,7,1,12,0.00
2013-11-29,59,52,46,52,46,41,92,81,53,30.24,30.11,4,0,7,0.08
2013-11-30,74,56,43,53,44,36,96,68,34,30.25,30.12,6,1,12,0.96
2013-12-1,74,55,42,47,36,24,84,55,16,30.29,30.15,4,0,7,0.00
2013-12-2,74,54,40,43,34,28,76,50,22,30.21,29.97,2,0,4,0.00
2013-12-3,62,51,40,51,43,32,91,75,60,29.97,29.80,16,4,21,0.00
2013-12-4,61,49,39,50,39,32,91,70,44,30.02,29.80,11,2,20,0.00
2013-12-5,58,46,37,41,36,30,86,70,37,30.17,30.01,7,1,11,0.00
2013-12-6,54,44,34,41,36,31,92,74,52,30.24,30.15,7,1,12,0.00
2013-12-7,48,42,35,47,38,32,95,86,67,30.19,30.06,12,2,20,0.11
2013-12-8,52,42,34,43,37,32,96,83,60,30.27,30.15,6,1,10,0.00
2013-12-9,56,39,28,35,22,0,95,58,13,30.39,30.25,10,1,20,0.01
2013-12-10,67,43,24,30,19,10,73,44,11,30.35,30.17,4,0,7,0.11
2013-12-11,73,48,31,32,22,13,73,41,12,30.26,30.18,6,0,8,0.00
2013-12-12,70,49,35,37,29,22,76,49,18,30.28,30.17,10,1,12,0.00
2013-12-13,67,48,33,37,30,26,83,55,23,30.30,30.17,4,0,7,0.00
2013-12-14,74,50,32,33,24,12,78,43,13,30.39,30.26,7,1,12,0.00
2013-12-15,81,55,34,32,26,21,63,38,11,30.33,30.16,4,0,5,0.00
2013-12-16,83,58,42,41,32,26,66,40,14,30.23,30.13,4,0,6,0.00
2013-12-17,86,61,44,44,34,26,64,41,12,30.19,30.05,4,0,8,0.00
2013-12-18,74,58,51,48,37,28,86,49,22,30.05,29.89,10,2,16,0.00
2013-12-19,51,47,41,47,44,39,96,91,79,29.90,29.75,9,2,13,0.28
2013-12-20,60,46,34,47,40,34,97,83,47,30.02,29.82,6,0,10,0.01
2013-12-21,61,46,36,47,41,34,96,83,56,30.16,29.99,5,1,8,0.12
2013-12-22,71,50,34,48,39,32,96,71,35,30.34,30.15,3,0,5,0.00
2013-12-23,75,53,37,45,36,31,87,59,25,30.39,30.28,5,0,7,0.00
2013-12-24,78,56,38,41,35,31,81,51,21,30.28,30.15,5,1,8,0.00
2013-12-25,78,54,37,40,27,8,78,44,10,30.29,30.16,6,1,12,0.00
2013-12-26,74,52,34,34,23,12,67,38,10,30.26,30.12,18,2,27,0.00
2013-12-27,81,55,34,34,23,14,61,34,9,30.24,30.11,6,1,7,0.00
2013-12-28,74,54,40,35,27,18,59,40,13,30.14,29.98,9,1,12,0.00
2013-12-29,69,50,33,32,21,11,69,38,12,30.24,30.06,11,1,16,0.00
2013-12-30,76,50,32,27,20,11,66,35,11,30.34,30.22,3,0,6,0.00
2013-12-31,76,52,34,31,23,12,58,37,11,30.28,30.14,4,0,8,0.00
2014-1-1,81,54,35,35,26,21,66,38,12,30.20,30.10,4,0,7,0.00
2014-1-2,82,56,38,43,29,24,73,39,14,30.18,30.05,5,1,8,0.00